QPF
0.05 0.02 0.01 0.00 0.00 0.00 0.01 0.01 0.01 0.02 0.02 0.01 0.01 0.00 0.00 0.00 0.00 0.01 0.01 0.01 0.02 0.02 0.02 0.02 0.02 0.03 0.02 0.02 0.01 0.01 0.01 0.02 0.03 0.03 0.04 0.03 0.03 0.04 0.05 0.06 0.06 0.07 0.06
0.06 0.03 0.01 0.01 0.00 0.00 0.01 0.01 0.01 0.01 0.01 0.01 0.01 0.00 0.00 0.00 0.01 0.01 0.01 0.01 0.02 0.02 0.04 0.04 0.03 0.03 0.03 0.03 0.02 0.01 0.01 0.02 0.02 0.02 0.03 0.03 0.03 0.03 0.04 0.06 0.10 0.11 0.09
0.07 0.05 0.03 0.02 0.01 0.01 0.01 0.02 0.02 0.01 0.01 0.01 0.01 0.00 0.00 0.00 0.01 0.00 0.00 0.01 0.02 0.02 0.03 0.04 0.04 0.04 0.04 0.03 0.03 0.02 0.02 0.02 0.03 0.04 0.03 0.02 0.02 0.02 0.03 0.05 0.08 0.09 0.09
0.08 0.05 0.03 0.03 0.03 0.02 0.03 0.03 0.03 0.02 0.02 0.02 0.01 0.00 0.00 0.00 0.01 0.00 0.00 0.01 0.01 0.01 0.02 0.04 0.04 0.04 0.03 0.03 0.03 0.03 0.04 0.04 0.06 0.06 0.05 0.03 0.02 0.02 0.03 0.04 0.05 0.06 0.06
0.06 0.06 0.04 0.03 0.03 0.03 0.04 0.04 0.05 0.04 0.03 0.03 0.01 0.01 0.00 0.00 0.00 0.01 0.01 0.00 0.01 0.01 0.01 0.01 0.02 0.02 0.02 0.02 0.03 0.03 0.04 0.05 0.06 0.07 0.06 0.04 0.02 0.02 0.03 0.04 0.05 0.05 0.05
0.03 0.04 0.04 0.03 0.02 0.03 0.05 0.04 0.05 0.05 0.04 0.03 0.01 0.01 0.00 0.00 0.00 0.01 0.01 0.01 0.01 0.01 0.01 0.01 0.01 0.01 0.01 0.02 0.02 0.02 0.02 0.03 0.03 0.05 0.06 0.05 0.03 0.03 0.03 0.03 0.03 0.04 0.05
0.02 0.02 0.02 0.02 0.02 0.03 0.05 0.04 0.04 0.05 0.04 0.03 0.01 0.01 0.01 0.01 0.01 0.00 0.01 0.01 0.01 0.01 0.01 0.01 0.01 0.01 0.01 0.01 0.02 0.02 0.01 0.02 0.02 0.03 0.03 0.04 0.03 0.03 0.03 0.03 0.03 0.03 0.05
0.03 0.02 0.01 0.01 0.01 0.03 0.05 0.05 0.04 0.05 0.05 0.03 0.01 0.01 0.01 0.01 0.01 0.01 0.00 0.01 0.01 0.02 0.02 0.01 0.01 0.02 0.01 0.01 0.01 0.01 0.01 0.01 0.02 0.03 0.03 0.03 0.03 0.02 0.02 0.03 0.03 0.04 0.04
0.03 0.03 0.02 0.01 0.01 0.02 0.04 0.05 0.04 0.05 0.05 0.03 0.01 0.01 0.00 0.00 0.00 0.00 0.00 0.01 0.01 0.02 0.02 0.02 0.02 0.02 0.02 0.01 0.01 0.01 0.01 0.01 0.02 0.03 0.04 0.04 0.04 0.03 0.03 0.03 0.03 0.03 0.04
0.03 0.04 0.03 0.03 0.04 0.03 0.03 0.05 0.05 0.04 0.04 0.03 0.01 0.01 0.00 0.00 0.00 0.00 0.00 0.01 0.01 0.02 0.02 0.02 0.02 0.01 0.01 0.02 0.02 0.01 0.01 0.01 0.01 0.02 0.04 0.03 0.03 0.03 0.03 0.02 0.03 0.03 0.03
0.05 0.04 0.04 0.04 0.05 0.04 0.04 0.05 0.05 0.05 0.04 0.03 0.02 0.01 0.01 0.00 0.00 0.00 0.00 0.00 0.01 0.01 0.02 0.02 0.02 0.01 0.01 0.01 0.02 0.02 0.01 0.01 0.01 0.02 0.04 0.04 0.03 0.03 0.03 0.02 0.02 0.02 0.02
0.06 0.05 0.05 0.04 0.04 0.04 0.04 0.05 0.05 0.06 0.04 0.03 0.02 0.01 0.01 0.01 0.00 0.00 0.00 0.00 0.01 0.01 0.01 0.01 0.01 0.01 0.01 0.01 0.01 0.01 0.02 0.02 0.01 0.02 0.03 0.05 0.04 0.04 0.03 0.03 0.02 0.02 0.03
0.07 0.05 0.05 0.06 0.05 0.04 0.03 0.04 0.04 0.05 0.04 0.03 0.02 0.01 0.01 0.01 0.00 0.00 0.00 0.00 0.00 0.01 0.01 0.01 0.01 0.01 0.01 0.02 0.01 0.01 0.02 0.02 0.02 0.01 0.02 0.04 0.04 0.03 0.03 0.02 0.02 0.02 0.03
0.05 0.05 0.04 0.05 0.06 0.04 0.03 0.03 0.04 0.04 0.03 0.02 0.02 0.01 0.01 0.02 0.01 0.01 0.00 0.01 0.01 0.01 0.01 0.02 0.02 0.02 0.02 0.02 0.02 0.02 0.01 0.02 0.01 0.02 0.02 0.03 0.03 0.03 0.02 0.02 0.01 0.02 0.03
0.05 0.05 0.05 0.04 0.05 0.06 0.05 0.03 0.03 0.03 0.03 0.02 0.02 0.01 0.01 0.01 0.02 0.01 0.01 0.01 0.01 0.01 0.01 0.02 0.02 0.03 0.03 0.03 0.03 0.02 0.01 0.01 0.02 0.02 0.02 0.03 0.03 0.03 0.02 0.01 0.01 0.01 0.02
0.06 0.05 0.06 0.06 0.05 0.06 0.06 0.05 0.04 0.03 0.03 0.02 0.02 0.01 0.01 0.02 0.02 0.03 0.02 0.01 0.01 0.01 0.01 0.01 0.01 0.02 0.03 0.04 0.04 0.03 0.03 0.02 0.03 0.04 0.03 0.03 0.03 0.02 0.02 0.01 0.01 0.01 0.02
0.06 0.07 0.06 0.07 0.07 0.06 0.06 0.05 0.04 0.03 0.03 0.02 0.02 0.02 0.02 0.02 0.02 0.03 0.04 0.02 0.01 0.01 0.01 0.01 0.01 0.02 0.03 0.04 0.04 0.04 0.04 0.02 0.03 0.04 0.04 0.03 0.03 0.02 0.01 0.01 0.01 0.01 0.02
0.05 0.06 0.06 0.06 0.06 0.06 0.06 0.06 0.05 0.04 0.03 0.02 0.01 0.01 0.02 0.02 0.02 0.02 0.03 0.04 0.02 0.01 0.01 0.01 0.02 0.02 0.03 0.03 0.04 0.04 0.04 0.03 0.03 0.04 0.04 0.03 0.02 0.02 0.01 0.01 0.01 0.01 0.03
0.05 0.05 0.05 0.05 0.04 0.04 0.05 0.06 0.06 0.05 0.04 0.03 0.02 0.01 0.02 0.02 0.02 0.02 0.02 0.03 0.03 0.01 0.01 0.01 0.01 0.02 0.03 0.03 0.03 0.04 0.04 0.03 0.04 0.04 0.04 0.03 0.02 0.02 0.01 0.01 0.01 0.01 0.02
0.05 0.04 0.04 0.04 0.03 0.03 0.04 0.06 0.07 0.07 0.06 0.04 0.03 0.02 0.02 0.02 0.02 0.02 0.02 0.02 0.03 0.02 0.01 0.01 0.02 0.02 0.02 0.02 0.02 0.03 0.04 0.04 0.04 0.05 0.04 0.03 0.02 0.02 0.01 0.01 0.01 0.01 0.01
0.05 0.04 0.03 0.03 0.03 0.02 0.03 0.03 0.06 0.07 0.07 0.07 0.05 0.04 0.03 0.03 0.03 0.04 0.04 0.03 0.03 0.03 0.02 0.02 0.02 0.02 0.02 0.02 0.02 0.02 0.03 0.03 0.04 0.04 0.03 0.03 0.02 0.01 0.01 0.01 0.01 0.01 0.01
0.05 0.05 0.04 0.04 0.03 0.02 0.02 0.03 0.04 0.07 0.08 0.07 0.07 0.06 0.06 0.06 0.04 0.04 0.04 0.04 0.04 0.04 0.03 0.03 0.03 0.02 0.02 0.01 0.02 0.02 0.02 0.02 0.03 0.03 0.03 0.04 0.03 0.02 0.01 0.01 0.01 0.01 0.02
0.04 0.04 0.04 0.04 0.03 0.03 0.03 0.03 0.05 0.05 0.07 0.07 0.06 0.05 0.06 0.06 0.06 0.05 0.04 0.05 0.05 0.04 0.04 0.04 0.04 0.02 0.02 0.01 0.01 0.01 0.01 0.02 0.02 0.03 0.03 0.03 0.03 0.02 0.02 0.02 0.02 0.02 0.03
0.03 0.04 0.04 0.04 0.04 0.04 0.04 0.04 0.05 0.06 0.06 0.05 0.06 0.06 0.06 0.06 0.05 0.05 0.05 0.05 0.04 0.04 0.04 0.03 0.03 0.02 0.02 0.01 0.01 0.02 0.02 0.02 0.02 0.04 0.05 0.04 0.02 0.02 0.02 0.02 0.02 0.03 0.04
0.03 0.03 0.03 0.04 0.04 0.04 0.04 0.05 0.05 0.06 0.06 0.06 0.05 0.05 0.06 0.05 0.05 0.05 0.06 0.06 0.05 0.04 0.04 0.04 0.03 0.03 0.03 0.02 0.02 0.03 0.03 0.03 0.03 0.04 0.04 0.03 0.02 0.02 0.02 0.03 0.03 0.03 0.03
0.02 0.03 0.03 0.04 0.04 0.04 0.04 0.05 0.05 0.05 0.05 0.06 0.06 0.06 0.06 0.05 0.05 0.05 0.05 0.05 0.05 0.05 0.04 0.04 0.03 0.03 0.03 0.03 0.03 0.03 0.03 0.03 0.03 0.03 0.02 0.01 0.01 0.01 0.02 0.02 0.02 0.02 0.03
MSLP
1026.07 1025.98 1025.84 1025.68 1025.48 1025.26 1025.01 1024.72 1024.40 1024.08 1023.76 1023.49 1023.27 1023.14 1023.08 1023.09 1023.14 1023.20 1023.24 1023.23 1023.15 1023.00 1022.80 1022.56 1022.31 1022.07 1021.84 1021.64 1021.45 1021.28 1021.10 1020.91 1020.73 1020.54 1020.36 1020.21 1020.07 1019.95 1019.84 1019.71 1019.56 1019.37 1019.14
1026.84 1026.66 1026.47 1026.26 1026.05 1025.83 1025.57 1025.27 1024.93 1024.55 1024.17 1023.81 1023.51 1023.31 1023.22 1023.23 1023.33 1023.46 1023.60 1023.69 1023.70 1023.63 1023.48 1023.27 1023.02 1022.75 1022.49 1022.25 1022.02 1021.80 1021.59 1021.37 1021.15 1020.95 1020.75 1020.59 1020.45 1020.34 1020.25 1020.15 1020.03 1019.86 1019.66
1027.39 1027.15 1026.92 1026.71 1026.51 1026.31 1026.09 1025.82 1025.48 1025.08 1024.65 1024.23 1023.86 1023.59 1023.45 1023.44 1023.54 1023.72 1023.92 1024.10 1024.20 1024.21 1024.13 1023.96 1023.73 1023.46 1023.18 1022.90 1022.64 1022.38 1022.12 1021.86 1021.60 1021.35 1021.12 1020.92 1020.76 1020.64 1020.54 1020.46 1020.36 1020.23 1020.05
1027.79 1027.51 1027.26 1027.05 1026.89 1026.74 1026.58 1026.35 1026.05 1025.66 1025.21 1024.74 1024.31 1023.97 1023.76 1023.71 1023.79 1023.98 1024.22 1024.45 1024.63 1024.71 1024.69 1024.57 1024.38 1024.13 1023.85 1023.56 1023.27 1022.97 1022.67 1022.37 1022.06 1021.75 1021.46 1021.21 1021.01 1020.85 1020.73 1020.63 1020.54 1020.43 1020.29
1028.11 1027.80 1027.54 1027.35 1027.22 1027.13 1027.03 1026.87 1026.61 1026.25 1025.80 1025.31 1024.83 1024.43 1024.16 1024.05 1024.09 1024.25 1024.50 1024.75 1024.97 1025.10 1025.14 1025.07 1024.92 1024.70 1024.44 1024.15 1023.85 1023.54 1023.21 1022.86 1022.50 1022.14 1021.79 1021.47 1021.20 1020.98 1020.82 1020.70 1020.60 1020.50 1020.38
1028.45 1028.11 1027.84 1027.66 1027.56 1027.50 1027.45 1027.34 1027.14 1026.82 1026.38 1025.89 1025.39 1024.94 1024.62 1024.44 1024.42 1024.54 1024.75 1024.99 1025.22 1025.38 1025.45 1025.42 1025.31 1025.13 1024.90 1024.64 1024.35 1024.03 1023.69 1023.32 1022.92 1022.50 1022.10 1021.71 1021.37 1021.09 1020.86 1020.70 1020.57 1020.46 1020.35
1028.87 1028.50 1028.21 1028.01 1027.90 1027.86 1027.83 1027.76 1027.60 1027.32 1026.92 1026.44 1025.94 1025.48 1025.11 1024.88 1024.80 1024.85 1025.01 1025.21 1025.40 1025.56 1025.64 1025.64 1025.56 1025.41 1025.22 1024.99 1024.72 1024.42 1024.09 1023.71 1023.29 1022.84 1022.38 1021.94 1021.54 1021.19 1020.90 1020.68 1020.52 1020.39 1020.27
1029.41 1028.99 1028.65 1028.41 1028.27 1028.21 1028.17 1028.10 1027.97 1027.72 1027.37 1026.94 1026.46 1026.01 1025.63 1025.36 1025.22 1025.21 1025.29 1025.42 1025.56 1025.68 1025.74 1025.74 1025.68 1025.56 1025.40 1025.21 1024.97 1024.70 1024.38 1024.02 1023.59 1023.13 1022.65 1022.17 1021.71 1021.31 1020.97 1020.70 1020.49 1020.33 1020.19
1030.03 1029.56 1029.17 1028.86 1028.66 1028.54 1028.46 1028.37 1028.24 1028.03 1027.73 1027.36 1026.94 1026.53 1026.16 1025.88 1025.70 1025.62 1025.62 1025.67 1025.74 1025.80 1025.82 1025.80 1025.73 1025.63 1025.49 1025.32 1025.12 1024.88 1024.59 1024.25 1023.84 1023.38 1022.89 1022.39 1021.91 1021.47 1021.09 1020.77 1020.52 1020.32 1020.15
1030.70 1030.18 1029.72 1029.34 1029.05 1028.85 1028.70 1028.58 1028.44 1028.26 1028.01 1027.71 1027.37 1027.02 1026.69 1026.42 1026.21 1026.08 1026.01 1025.98 1025.96 1025.95 1025.91 1025.85 1025.76 1025.65 1025.53 1025.38 1025.20 1024.99 1024.73 1024.41 1024.02 1023.58 1023.10 1022.60 1022.11 1021.65 1021.24 1020.90 1020.61 1020.38 1020.18
1031.35 1030.79 1030.27 1029.81 1029.43 1029.14 1028.92 1028.74 1028.59 1028.42 1028.23 1028.00 1027.75 1027.47 1027.21 1026.96 1026.75 1026.58 1026.44 1026.33 1026.23 1026.14 1026.04 1025.93 1025.81 1025.69 1025.56 1025.41 1025.25 1025.05 1024.81 1024.51 1024.14 1023.72 1023.26 1022.77 1022.29 1021.82 1021.41 1021.04 1020.74 1020.47 1020.24
1031.92 1031.34 1030.77 1030.25 1029.79 1029.41 1029.11 1028.88 1028.70 1028.55 1028.40 1028.24 1028.07 1027.87 1027.66 1027.45 1027.25 1027.05 1026.86 1026.69 1026.52 1026.36 1026.20 1026.04 1025.89 1025.74 1025.60 1025.45 1025.29 1025.09 1024.85 1024.56 1024.21 1023.80 1023.35 1022.88 1022.41 1021.96 1021.54 1021.17 1020.85 1020.56 1020.31
1032.38 1031.79 1031.20 1030.63 1030.11 1029.66 1029.29 1029.01 1028.80 1028.65 1028.53 1028.42 1028.31 1028.18 1028.02 1027.84 1027.65 1027.43 1027.21 1026.99 1026.77 1026.55 1026.35 1026.15 1025.98 1025.81 1025.65 1025.48 1025.30 1025.10 1024.85 1024.55 1024.20 1023.80 1023.36 1022.91 1022.45 1022.00 1021.59 1021.22 1020.89 1020.59 1020.32
1032.72 1032.14 1031.54 1030.95 1030.38 1029.88 1029.45 1029.11 1028.87 1028.70 1028.59 1028.51 1028.44 1028.35 1028.23 1028.07 1027.88 1027.66 1027.41 1027.16 1026.90 1026.66 1026.42 1026.21 1026.02 1025.83 1025.66 1025.48 1025.28 1025.05 1024.78 1024.47 1024.11 1023.71 1023.28 1022.83 1022.38 1021.94 1021.54 1021.17 1020.83 1020.53 1020.25
1032.94 1032.38 1031.79 1031.18 1030.59 1030.04 1029.56 1029.18 1028.89 1028.70 1028.58 1028.50 1028.43 1028.35 1028.24 1028.09 1027.90 1027.67 1027.41 1027.14 1026.87 1026.62 1026.38 1026.16 1025.96 1025.78 1025.59 1025.39 1025.18 1024.93 1024.64 1024.31 1023.93 1023.52 1023.09 1022.64 1022.19 1021.76 1021.36 1020.99 1020.65 1020.34 1020.06
1033.05 1032.52 1031.94 1031.32 1030.71 1030.12 1029.60 1029.17 1028.84 1028.61 1028.45 1028.35 1028.26 1028.17 1028.05 1027.89 1027.69 1027.45 1027.19 1026.91 1026.65 1026.40 1026.17 1025.96 1025.77 1025.59 1025.40 1025.19 1024.96 1024.70 1024.39 1024.04 1023.65 1023.23 1022.80 1022.35 1021.91 1021.48 1021.07 1020.70 1020.36 1020.05 1019.76
1033.08 1032.55 1031.97 1031.34 1030.70 1030.09 1029.53 1029.06 1028.68 1028.40 1028.20 1028.06 1027.94 1027.82 1027.67 1027.49 1027.28 1027.03 1026.76 1026.49 1026.24 1026.00 1025.79 1025.60 1025.42 1025.24 1025.06 1024.85 1024.61 1024.33 1024.02 1023.66 1023.27 1022.85 1022.42 1021.98 1021.54 1021.11 1020.70 1020.33 1019.98 1019.66 1019.37
1033.03 1032.49 1031.89 1031.24 1030.58 1029.93 1029.34 1028.82 1028.40 1028.08 1027.83 1027.65 1027.49 1027.34 1027.16 1026.96 1026.73 1026.47 1026.21 1025.94 1025.70 1025.48 1025.28 1025.10 1024.93 1024.76 1024.57 1024.36 1024.12 1023.85 1023.53 1023.18 1022.80 1022.40 1021.98 1021.55 1021.12 1020.70 1020.29 1019.91 1019.55 1019.23 1018.93
1032.93 1032.35 1031.71 1031.02 1030.33 1029.65 1029.03 1028.48 1028.03 1027.67 1027.39 1027.17 1026.98 1026.79 1026.60 1026.38 1026.13 1025.87 1025.61 1025.35 1025.11 1024.89 1024.70 1024.52 1024.35 1024.18 1023.99 1023.77 1023.53 1023.26 1022.96 1022.63 1022.27 1021.90 1021.50 1021.10 1020.69 1020.28 1019.87 1019.49 1019.12 1018.79 1018.48
1032.79 1032.15 1031.46 1030.73 1030.00 1029.29 1028.64 1028.07 1027.59 1027.22 1026.92 1026.67 1026.46 1026.26 1026.05 1025.82 1025.58 1025.31 1025.05 1024.79 1024.55 1024.32 1024.12 1023.93 1023.74 1023.55 1023.35 1023.13 1022.89 1022.63 1022.34 1022.04 1021.71 1021.37 1021.02 1020.64 1020.26 1019.86 1019.47 1019.08 1018.71 1018.36 1018.04
1032.66 1031.94 1031.19 1030.41 1029.64 1028.90 1028.24 1027.66 1027.18 1026.79 1026.49 1026.24 1026.02 1025.81 1025.60 1025.37 1025.12 1024.86 1024.59 1024.33 1024.08 1023.84 1023.61 1023.39 1023.18 1022.96 1022.74 1022.50 1022.25 1021.99 1021.73 1021.45 1021.16 1020.86 1020.54 1020.21 1019.85 1019.47 1019.08 1018.69 1018.31 1017.95 1017.61
1032.55 1031.77 1030.96 1030.13 1029.33 1028.58 1027.90 1027.32 1026.84 1026.46 1026.16 1025.91 1025.70 1025.49 1025.28 1025.06 1024.81 1024.55 1024.28 1024.01 1023.74 1023.48 1023.22 1022.96 1022.71 1022.46 1022.20 1021.94 1021.68 1021.42 1021.17 1020.91 1020.66 1020.39 1020.10 1019.80 1019.46 1019.10 1018.72 1018.33 1017.94 1017.55 1017.19
1032.51 1031.68 1030.82 1029.96 1029.14 1028.38 1027.70 1027.13 1026.66 1026.28 1025.98 1025.74 1025.53 1025.32 1025.11 1024.89 1024.64 1024.38 1024.11 1023.82 1023.54 1023.25 1022.96 1022.67 1022.38 1022.08 1021.79 1021.50 1021.22 1020.96 1020.70 1020.46 1020.22 1019.97 1019.71 1019.42 1019.10 1018.75 1018.37 1017.98 1017.57 1017.16 1016.78
1032.57 1031.70 1030.82 1029.95 1029.13 1028.37 1027.70 1027.14 1026.67 1026.29 1025.99 1025.74 1025.52 1025.30 1025.08 1024.85 1024.60 1024.34 1024.06 1023.76 1023.46 1023.15 1022.84 1022.51 1022.19 1021.86 1021.54 1021.22 1020.92 1020.63 1020.37 1020.11 1019.87 1019.63 1019.37 1019.09 1018.77 1018.42 1018.04 1017.62 1017.20 1016.77 1016.34
1032.72 1031.85 1030.98 1030.12 1029.30 1028.56 1027.90 1027.34 1026.87 1026.48 1026.16 1025.88 1025.64 1025.40 1025.16 1024.91 1024.65 1024.38 1024.09 1023.79 1023.48 1023.16 1022.83 1022.49 1022.14 1021.79 1021.43 1021.09 1020.76 1020.46 1020.17 1019.89 1019.63 1019.37 1019.10 1018.80 1018.47 1018.11 1017.71 1017.28 1016.83 1016.37 1015.91
1032.93 1032.09 1031.24 1030.41 1029.63 1028.90 1028.26 1027.70 1027.21 1026.80 1026.45 1026.14 1025.85 1025.57 1025.30 1025.02 1024.74 1024.46 1024.17 1023.87 1023.56 1023.24 1022.91 1022.57 1022.21 1021.84 1021.47 1021.11 1020.76 1020.42 1020.10 1019.79 1019.50 1019.20 1018.90 1018.57 1018.22 1017.83 1017.41 1016.96 1016.48 1015.98 1015.47
Thickness
5589 5588 5587 5588 5589 5589 5591 5592 5592 5593 5594 5595 5596 5597 5599 5601 5602 5603 5604 5606 5608 5610 5612 5614 5615 5616 5618 5619 5620 5621 5622 5623 5624 5625 5626 5627 5628 5628 5629 5629 5629 5630 5630
5579 5579 5578 5577 5578 5579 5580 5581 5582 5583 5584 5584 5586 5587 5588 5590 5591 5593 5594 5595 5597 5599 5601 5603 5605 5606 5608 5609 5610 5612 5612 5613 5615 5616 5617 5618 5619 5620 5620 5621 5622 5622 5622
5569 5568 5568 5567 5567 5567 5568 5570 5571 5572 5573 5574 5575 5576 5578 5579 5580 5582 5583 5585 5586 5587 5589 5591 5593 5595 5597 5599 5600 5601 5602 5603 5605 5606 5607 5608 5610 5610 5611 5612 5613 5613 5613
5558 5558 5557 5556 5555 5556 5557 5559 5560 5562 5563 5564 5565 5565 5566 5567 5569 5570 5572 5573 5575 5576 5577 5579 5581 5583 5586 5587 5589 5590 5592 5593 5594 5596 5597 5599 5600 5601 5602 5603 5603 5603 5604
5547 5547 5546 5545 5544 5545 5546 5548 5549 5551 5552 5553 5554 5554 5555 5556 5557 5559 5560 5561 5563 5564 5566 5567 5569 5571 5573 5575 5577 5578 5580 5581 5583 5585 5587 5588 5589 5590 5591 5592 5593 5594 5594
5536 5537 5535 5534 5534 5535 5536 5537 5538 5539 5540 5541 5543 5543 5544 5544 5545 5546 5548 5549 5551 5552 5554 5555 5556 5558 5560 5562 5564 5566 5568 5569 5571 5573 5575 5577 5578 5580 5580 5581 5583 5584 5584
5526 5526 5525 5524 5524 5525 5526 5526 5527 5528 5528 5530 5532 5532 5533 5533 5534 5534 5535 5537 5538 5540 5541 5543 5544 5545 5547 5548 5550 5552 5554 5557 5559 5561 5563 5565 5567 5568 5570 5571 5572 5573 5574
5516 5515 5515 5514 5514 5515 5515 5515 5516 5517 5517 5518 5522 5525 5526 5524 5523 5522 5523 5524 5526 5527 5528 5530 5531 5532 5533 5534 5536 5538 5540 5543 5546 5548 5550 5552 5554 5556 5558 5559 5561 5562 5563
5506 5505 5504 5505 5505 5505 5505 5505 5506 5507 5507 5507 5510 5514 5518 5522 5515 5513 5512 5512 5513 5514 5515 5516 5517 5518 5519 5520 5522 5523 5526 5529 5532 5535 5537 5539 5542 5544 5545 5547 5548 5550 5551
5495 5494 5494 5495 5494 5494 5494 5495 5495 5496 5496 5497 5497 5498 5501 5503 5504 5504 5502 5500 5500 5500 5501 5502 5502 5503 5504 5505 5507 5508 5511 5514 5517 5521 5524 5526 5529 5531 5532 5534 5535 5537 5538
5485 5484 5484 5484 5484 5484 5484 5484 5484 5484 5485 5487 5487 5486 5486 5487 5489 5492 5493 5490 5487 5487 5488 5488 5489 5490 5490 5492 5493 5495 5497 5499 5503 5506 5510 5512 5515 5517 5518 5520 5521 5523 5524
5474 5473 5473 5473 5473 5473 5473 5473 5473 5473 5474 5474 5474 5475 5475 5476 5477 5479 5480 5478 5476 5475 5474 5475 5476 5477 5478 5479 5480 5481 5483 5485 5489 5492 5495 5498 5500 5502 5504 5505 5507 5508 5510
5465 5464 5463 5462 5462 5462 5462 5461 5461 5461 5462 5462 5462 5463 5463 5463 5463 5464 5465 5464 5463 5462 5462 5463 5463 5464 5464 5466 5467 5468 5470 5472 5475 5477 5480 5483 5485 5486 5488 5490 5492 5493 5495
5456 5455 5453 5452 5451 5450 5450 5450 5450 5450 5450 5450 5450 5450 5450 5449 5449 5450 5451 5451 5451 5450 5451 5452 5451 5451 5452 5453 5454 5455 5457 5459 5461 5463 5466 5468 5469 5471 5473 5474 5476 5478 5480
5444 5443 5442 5441 5440 5439 5439 5438 5439 5439 5438 5438 5438 5437 5437 5436 5436 5436 5436 5437 5439 5442 5443 5442 5440 5439 5439 5440 5440 5441 5443 5445 5447 5449 5451 5452 5454 5456 5457 5459 5460 5462 5464
5432 5431 5431 5431 5430 5429 5428 5427 5428 5428 5427 5427 5426 5425 5425 5424 5423 5422 5422 5423 5425 5427 5429 5430 5427 5426 5425 5426 5426 5427 5429 5431 5433 5435 5437 5438 5440 5441 5442 5444 5445 5447 5449
5421 5420 5420 5420 5419 5418 5417 5416 5416 5416 5416 5416 5415 5414 5413 5412 5411 5410 5409 5409 5410 5412 5413 5414 5412 5413 5412 5413 5413 5414 5415 5417 5419 5421 5422 5423 5424 5426 5427 5428 5430 5432 5434
5409 5409 5409 5408 5408 5407 5406 5406 5405 5405 5406 5406 5405 5403 5402 5401 5400 5399 5398 5398 5398 5399 5399 5400 5400 5399 5400 5400 5400 5401 5402 5403 5405 5406 5407 5408 5410 5411 5412 5413 5415 5417 5419
5397 5397 5397 5397 5397 5396 5395 5395 5395 5395 5395 5395 5395 5394 5393 5391 5390 5389 5388 5387 5387 5386 5387 5386 5388 5387 5387 5386 5387 5387 5388 5389 5390 5392 5393 5394 5395 5396 5397 5399 5400 5402 5404
5383 5385 5385 5385 5385 5385 5384 5384 5384 5385 5384 5384 5384 5384 5383 5382 5381 5380 5378 5377 5375 5374 5374 5374 5375 5375 5374 5374 5374 5375 5375 5375 5377 5378 5378 5379 5380 5380 5382 5384 5387 5387 5389
5370 5371 5372 5373 5373 5373 5373 5374 5374 5374 5374 5374 5373 5372 5372 5371 5370 5369 5368 5367 5365 5363 5363 5363 5364 5363 5363 5362 5363 5363 5363 5363 5363 5363 5363 5364 5366 5367 5368 5369 5370 5371 5373
5356 5358 5359 5360 5361 5361 5362 5362 5362 5363 5364 5364 5363 5362 5361 5360 5358 5357 5357 5357 5356 5354 5353 5352 5353 5353 5353 5353 5351 5351 5350 5351 5352 5351 5349 5350 5350 5352 5353 5355 5356 5356 5357
5342 5344 5346 5348 5349 5349 5349 5350 5350 5351 5352 5353 5352 5351 5351 5350 5348 5347 5346 5345 5345 5344 5344 5344 5344 5344 5343 5343 5341 5339 5338 5338 5339 5338 5335 5338 5337 5338 5339 5339 5340 5341 5342
5328 5330 5333 5334 5336 5336 5337 5338 5338 5338 5340 5341 5340 5340 5340 5339 5338 5336 5335 5334 5335 5335 5334 5333 5334 5333 5332 5330 5329 5328 5327 5325 5324 5323 5322 5324 5324 5325 5325 5326 5326 5327 5327
5314 5316 5318 5320 5322 5323 5324 5324 5325 5326 5328 5329 5329 5329 5330 5329 5328 5327 5326 5325 5325 5325 5323 5323 5322 5321 5319 5319 5318 5316 5315 5314 5315 5314 5311 5311 5313 5313 5314 5314 5313 5313 5313
5300 5302 5305 5307 5309 5311 5311 5312 5313 5315 5316 5317 5318 5318 5319 5319 5319 5317 5317 5316 5316 5316 5314 5312 5311 5310 5308 5308 5307 5306 5306 5304 5304 5304 5302 5299 5300 5299 5301 5303 5300 5300 5301